CFG1304 EDDS-EHAM

Flight info

Callsign CFG1304
Flight time N/A
Altitude 32000
Route OKIBA4B/25 OKIBA N851 RIMKI Z99 LOHRE DCT MASEK DCT MAPOX DCT NORKU
Aircraft A20N/M-SDE2E3FGHIRWXY/LB1

Departure

Time 2026-05-07 17:39
Airport Stuttgart Airport (EDDS)

Arrival

Time N/A
Airport Amsterdam Airport Schiphol (EHAM)
Time Latitude Longitude Altitude Speed Heading
2026-05-07 17:13 48.68961 9.19778 1285 ft 0 kts 345°
2026-05-07 17:27 48.68956 9.19780 1285 ft 1 kts 345°
2026-05-07 17:27 48.68948 9.19783 1286 ft 1 kts 345°
2026-05-07 17:27 48.68941 9.19786 1287 ft 1 kts 345°
2026-05-07 17:28 48.68933 9.19789 1286 ft 1 kts 342°
2026-05-07 17:28 48.68926 9.19793 1287 ft 1 kts 331°
2026-05-07 17:28 48.68919 9.19799 1289 ft 1 kts 315°
2026-05-07 17:28 48.68913 9.19808 1288 ft 2 kts 296°
2026-05-07 17:29 48.68909 9.19830 1288 ft 2 kts 267°
2026-05-07 17:29 48.68910 9.19852 1290 ft 2 kts 256°
2026-05-07 17:29 48.68915 9.19874 1288 ft 2 kts 249°
2026-05-07 17:29 48.68920 9.19895 1289 ft 2 kts 244°
2026-05-07 17:30 48.68928 9.19914 1289 ft 2 kts 233°
2026-05-07 17:30 48.68934 9.19926 1290 ft 2 kts 225°
2026-05-07 17:30 48.68936 9.19929 1290 ft 0 kts 226°
2026-05-07 17:32 48.68935 9.19928 1290 ft 2 kts 227°
2026-05-07 17:32 48.68917 9.19897 1290 ft 6 kts 225°
2026-05-07 17:32 48.68874 9.19890 1287 ft 8 kts 178°
2026-05-07 17:33 48.68836 9.19956 1286 ft 10 kts 102°
2026-05-07 17:33 48.68852 9.20075 1287 ft 13 kts 74°
2026-05-07 17:33 48.68881 9.20229 1287 ft 17 kts 73°
2026-05-07 17:33 48.68915 9.20419 1288 ft 20 kts 73°
2026-05-07 17:34 48.68956 9.20638 1286 ft 23 kts 73°
2026-05-07 17:34 48.69001 9.20885 1286 ft 26 kts 75°
2026-05-07 17:34 48.69052 9.21155 1287 ft 28 kts 75°
2026-05-07 17:34 48.69107 9.21447 1287 ft 30 kts 74°
2026-05-07 17:35 48.69163 9.21757 1288 ft 31 kts 72°
2026-05-07 17:35 48.69226 9.22083 1287 ft 33 kts 75°
2026-05-07 17:35 48.69290 9.22417 1286 ft 34 kts 77°
2026-05-07 17:35 48.69356 9.22772 1288 ft 35 kts 72°
2026-05-07 17:36 48.69427 9.23126 1286 ft 36 kts 75°
2026-05-07 17:36 48.69484 9.23424 1286 ft 27 kts 73°
2026-05-07 17:36 48.69511 9.23669 1285 ft 21 kts 105°
2026-05-07 17:36 48.69453 9.23740 1285 ft 9 kts 172°
2026-05-07 17:37 48.69443 9.23742 1286 ft 0 kts 175°
2026-05-07 17:38 48.69418 9.23734 1285 ft 15 kts 201°
2026-05-07 17:38 48.69339 9.23642 1286 ft 17 kts 222°
2026-05-07 17:38 48.69255 9.23521 1286 ft 17 kts 234°
2026-05-07 17:39 48.69193 9.23286 1288 ft 59 kts 253°
2026-05-07 17:39 48.68986 9.22191 1287 ft 149 kts 254°
2026-05-07 17:39 48.68560 9.20494 1616 ft 194 kts 246°
2026-05-07 17:39 48.68039 9.18501 2485 ft 212 kts 258°
2026-05-07 17:40 48.67670 9.16228 3371 ft 233 kts 258°
2026-05-07 17:40 48.67294 9.13903 4314 ft 218 kts 257°
2026-05-07 17:40 48.66899 9.11660 4524 ft 224 kts 257°
2026-05-07 17:40 48.66867 9.09291 4599 ft 231 kts 286°
2026-05-07 17:41 48.67727 9.07160 4860 ft 260 kts 318°
2026-05-07 17:41 48.69332 9.05875 6033 ft 261 kts 342°
2026-05-07 17:41 48.71134 9.05333 7251 ft 266 kts 347°
2026-05-07 17:41 48.72949 9.04697 8348 ft 270 kts 342°
2026-05-07 17:42 48.74799 9.04019 9460 ft 278 kts 353°
2026-05-07 17:42 48.76748 9.04402 10500 ft 288 kts 20°
2026-05-07 17:42 48.78422 9.06073 11536 ft 294 kts 46°
2026-05-07 17:42 48.79772 9.08447 12551 ft 299 kts 41°
2026-05-07 17:43 48.81520 9.10111 13453 ft 306 kts 22°
2026-05-07 17:43 48.83603 9.11250 13866 ft 331 kts 16°
2026-05-07 17:43 48.85907 9.12305 14017 ft 361 kts 15°
2026-05-07 17:43 48.88418 9.13419 14050 ft 391 kts 13°
2026-05-07 17:44 48.91179 9.14271 14269 ft 410 kts
2026-05-07 17:44 48.93894 9.14978 14741 ft 384 kts
2026-05-07 17:44 48.96419 9.15636 15228 ft 368 kts
2026-05-07 17:44 48.98988 9.16335 15943 ft 368 kts
2026-05-07 17:45 49.01482 9.17040 16873 ft 370 kts
2026-05-07 17:45 49.04028 9.17777 17681 ft 376 kts
2026-05-07 17:45 49.06592 9.18529 18471 ft 381 kts
2026-05-07 17:45 49.09239 9.19309 19218 ft 384 kts
2026-05-07 17:46 49.11863 9.20083 19964 ft 388 kts
2026-05-07 17:46 49.14537 9.20873 20687 ft 392 kts
2026-05-07 17:46 49.17229 9.21669 21410 ft 396 kts
2026-05-07 17:46 49.19939 9.22471 22127 ft 399 kts
2026-05-07 17:47 49.22684 9.23284 22832 ft 403 kts
2026-05-07 17:47 49.25454 9.24105 23524 ft 407 kts
2026-05-07 17:47 49.28283 9.24944 24135 ft 411 kts
2026-05-07 17:47 49.31014 9.25755 24742 ft 413 kts
2026-05-07 17:48 49.33815 9.26588 25312 ft 416 kts
2026-05-07 17:48 49.36676 9.27440 25889 ft 419 kts
2026-05-07 17:48 49.39459 9.28269 26433 ft 422 kts
2026-05-07 17:48 49.42444 9.29156 27009 ft 424 kts
2026-05-07 17:49 49.45346 9.30021 27542 ft 427 kts
2026-05-07 17:49 49.48287 9.30900 28043 ft 430 kts
2026-05-07 17:49 49.51199 9.31773 28537 ft 433 kts
2026-05-07 17:49 49.54198 9.32674 29003 ft 436 kts
2026-05-07 17:50 49.57188 9.33573 29463 ft 439 kts
2026-05-07 17:50 49.60153 9.34466 29893 ft 441 kts
2026-05-07 17:50 49.63188 9.35381 30312 ft 444 kts
2026-05-07 17:50 49.66229 9.36299 30685 ft 447 kts
2026-05-07 17:51 49.69294 9.37226 31043 ft 450 kts
2026-05-07 17:51 49.72377 9.38160 31457 ft 452 kts
2026-05-07 17:51 49.75424 9.39084 31869 ft 452 kts
2026-05-07 17:51 49.78508 9.40021 32023 ft 450 kts
2026-05-07 17:52 49.84616 9.41879 32051 ft 449 kts
2026-05-07 17:52 49.90738 9.43745 32050 ft 449 kts
2026-05-07 17:53 49.96881 9.45622 32051 ft 449 kts
2026-05-07 17:53 50.03023 9.47505 32053 ft 449 kts
2026-05-07 17:54 50.09186 9.49054 32050 ft 448 kts
2026-05-07 17:54 50.15352 9.50071 32051 ft 448 kts
2026-05-07 17:55 50.21568 9.51119 32054 ft 448 kts
2026-05-07 17:55 50.27759 9.52162 32052 ft 448 kts
2026-05-07 17:56 50.33983 9.53208 32059 ft 448 kts
2026-05-07 17:56 50.37085 9.53215 32056 ft 446 kts 352°
2026-05-07 17:56 50.40103 9.52181 32054 ft 444 kts 340°
2026-05-07 17:57 50.42864 9.50181 32054 ft 442 kts 327°
2026-05-07 17:57 50.44562 9.48295 32050 ft 441 kts 319°
2026-05-07 17:57 50.49632 9.40452 32052 ft 440 kts 315°
2026-05-07 17:58 50.54136 9.33915 32056 ft 441 kts 318°
2026-05-07 17:58 50.58789 9.27602 32056 ft 441 kts 319°
2026-05-07 17:59 50.63467 9.21316 32063 ft 442 kts 319°
2026-05-07 17:59 50.68114 9.15045 32066 ft 442 kts 319°
2026-05-07 18:00 50.72783 9.08723 32065 ft 442 kts 319°
2026-05-07 18:00 50.77450 9.02385 32068 ft 442 kts 319°
2026-05-07 18:01 50.82115 8.96032 32072 ft 443 kts 319°
2026-05-07 18:01 50.86774 8.89669 32076 ft 442 kts 319°
2026-05-07 18:02 50.93759 8.80099 32078 ft 442 kts 319°
2026-05-07 18:03 50.98386 8.73736 32074 ft 442 kts 319°
2026-05-07 18:03 51.03026 8.67339 32072 ft 442 kts 319°
2026-05-07 18:04 51.07650 8.60946 32071 ft 442 kts 319°
2026-05-07 18:04 51.12279 8.54528 32070 ft 442 kts 318°
2026-05-07 18:05 51.16914 8.48086 32071 ft 442 kts 318°
2026-05-07 18:05 51.21546 8.41627 32071 ft 442 kts 318°
2026-05-07 18:06 51.26177 8.35155 32071 ft 442 kts 318°
2026-05-07 18:06 51.30798 8.28678 32076 ft 442 kts 318°
2026-05-07 18:07 51.35337 8.22298 32075 ft 443 kts 318°
2026-05-07 18:07 51.39967 8.15771 32076 ft 443 kts 318°
2026-05-07 18:08 51.44576 8.09257 32075 ft 443 kts 318°
2026-05-07 18:08 51.49201 8.02702 32076 ft 443 kts 317°
2026-05-07 18:09 51.53823 7.96132 32076 ft 444 kts 317°
2026-05-07 18:09 51.58440 7.89551 32078 ft 444 kts 317°
2026-05-07 18:10 51.63059 7.82948 32076 ft 444 kts 317°
2026-05-07 18:10 51.67650 7.76366 32075 ft 444 kts 317°
2026-05-07 18:11 51.72251 7.69753 31557 ft 440 kts 317°
2026-05-07 18:11 51.73761 7.67578 31088 ft 440 kts 317°
2026-05-07 18:11 51.76822 7.63162 30054 ft 439 kts 317°
2026-05-07 18:11 51.79080 7.59900 29315 ft 434 kts 317°
2026-05-07 18:12 51.81331 7.56644 28606 ft 429 kts 317°
2026-05-07 18:12 51.83519 7.53474 27907 ft 425 kts 317°
2026-05-07 18:12 51.85716 7.50286 27212 ft 421 kts 317°
2026-05-07 18:12 51.87887 7.47133 26531 ft 417 kts 316°
2026-05-07 18:13 51.89998 7.44062 26187 ft 409 kts 316°
2026-05-07 18:13 51.92156 7.40917 26097 ft 415 kts 316°
2026-05-07 18:13 51.94272 7.37828 26092 ft 415 kts 316°
2026-05-07 18:13 51.96416 7.34696 26092 ft 415 kts 316°
2026-05-07 18:14 51.98568 7.31550 26089 ft 415 kts 316°
2026-05-07 18:14 52.00678 7.28359 26085 ft 414 kts 311°
2026-05-07 18:14 52.02351 7.24601 25969 ft 409 kts 298°
2026-05-07 18:14 52.03612 7.20490 25517 ft 406 kts 293°
2026-05-07 18:15 52.04764 7.16302 24937 ft 403 kts 293°
2026-05-07 18:15 52.05520 7.13556 24511 ft 401 kts 293°
2026-05-07 18:15 52.06680 7.09455 23881 ft 398 kts 294°
2026-05-07 18:15 52.07860 7.05410 23223 ft 394 kts 294°
2026-05-07 18:16 52.09046 7.01414 22524 ft 391 kts 295°
2026-05-07 18:16 52.10230 6.97456 21841 ft 387 kts 295°
2026-05-07 18:16 52.11404 6.93535 21168 ft 384 kts 295°
2026-05-07 18:16 52.12570 6.89639 20505 ft 381 kts 295°
2026-05-07 18:17 52.13727 6.85763 19863 ft 378 kts 295°
2026-05-07 18:17 52.14869 6.81930 19247 ft 375 kts 295°
2026-05-07 18:17 52.15987 6.78172 18641 ft 372 kts 295°
2026-05-07 18:17 52.17108 6.74395 17995 ft 369 kts 295°
2026-05-07 18:18 52.18218 6.70654 17350 ft 365 kts 295°
2026-05-07 18:18 52.19321 6.66927 16738 ft 362 kts 295°
2026-05-07 18:18 52.20411 6.63241 16107 ft 359 kts 295°
2026-05-07 18:18 52.21486 6.59600 15501 ft 356 kts 295°
2026-05-07 18:19 52.22556 6.55967 14913 ft 353 kts 295°
2026-05-07 18:19 52.23612 6.52377 14339 ft 350 kts 295°
2026-05-07 18:19 52.24660 6.48810 13773 ft 347 kts 295°
2026-05-07 18:19 52.25696 6.45280 13164 ft 344 kts 295°
2026-05-07 18:20 52.26710 6.41819 12576 ft 341 kts 295°
2026-05-07 18:20 52.27725 6.38348 12003 ft 337 kts 295°
2026-05-07 18:20 52.28732 6.34898 11437 ft 334 kts 295°
2026-05-07 18:20 52.29727 6.31488 10877 ft 331 kts 295°
2026-05-07 18:21 52.30712 6.28104 10373 ft 327 kts 295°
2026-05-07 18:21 52.31682 6.24766 10148 ft 327 kts 295°
2026-05-07 18:21 52.32662 6.21394 10077 ft 327 kts 295°
2026-05-07 18:21 52.33635 6.18038 10076 ft 327 kts 295°
2026-05-07 18:22 52.34589 6.14744 10080 ft 311 kts 295°
2026-05-07 18:22 52.35188 6.12674 10073 ft 298 kts 295°
2026-05-07 18:22 52.36327 6.08730 10077 ft 278 kts 295°
2026-05-07 18:22 52.37149 6.05880 10077 ft 282 kts 295°
2026-05-07 18:23 52.37979 6.03000 10076 ft 281 kts 295°
2026-05-07 18:23 52.38811 6.00108 10075 ft 281 kts 295°
2026-05-07 18:23 52.39647 5.97198 10076 ft 281 kts 295°
2026-05-07 18:23 52.40478 5.94303 10077 ft 281 kts 295°
2026-05-07 18:24 52.41312 5.91397 10076 ft 281 kts 295°
2026-05-07 18:24 52.42143 5.88496 10075 ft 281 kts 295°
2026-05-07 18:24 52.42975 5.85589 10076 ft 281 kts 295°
2026-05-07 18:24 52.43804 5.82690 10076 ft 281 kts 295°
2026-05-07 18:25 52.44632 5.79787 10079 ft 281 kts 294°
2026-05-07 18:25 52.45463 5.76872 10075 ft 281 kts 294°
2026-05-07 18:25 52.46289 5.73968 10075 ft 281 kts 294°
2026-05-07 18:25 52.47117 5.71056 10073 ft 281 kts 294°
2026-05-07 18:26 52.47943 5.68146 10077 ft 281 kts 294°
2026-05-07 18:26 52.48772 5.65224 10074 ft 282 kts 294°
2026-05-07 18:26 52.49587 5.62346 10078 ft 282 kts 294°
2026-05-07 18:26 52.50394 5.59442 10075 ft 282 kts 290°
2026-05-07 18:27 52.50668 5.56276 10074 ft 281 kts 264°
2026-05-07 18:27 52.50060 5.53257 10077 ft 281 kts 240°
2026-05-07 18:27 52.49043 5.50511 10074 ft 282 kts 238°
2026-05-07 18:27 52.48002 5.47799 9979 ft 280 kts 238°
2026-05-07 18:28 52.46970 5.45105 9633 ft 279 kts 238°
2026-05-07 18:28 52.45951 5.42417 9215 ft 278 kts 238°
2026-05-07 18:28 52.44939 5.39721 8767 ft 277 kts 238°
2026-05-07 18:28 52.43935 5.37036 8339 ft 275 kts 238°
2026-05-07 18:29 52.42950 5.34400 7928 ft 274 kts 238°
2026-05-07 18:29 52.41956 5.31742 7515 ft 272 kts 238°
2026-05-07 18:29 52.40971 5.29112 7185 ft 268 kts 238°
2026-05-07 18:29 52.39989 5.26496 7099 ft 273 kts 237°
2026-05-07 18:30 52.38995 5.23849 7075 ft 271 kts 237°
2026-05-07 18:30 52.38011 5.21227 7061 ft 270 kts 237°
2026-05-07 18:30 52.37112 5.18824 6868 ft 268 kts 237°
2026-05-07 18:30 52.36160 5.16271 6529 ft 267 kts 237°
2026-05-07 18:31 52.35192 5.13662 6106 ft 267 kts 237°
2026-05-07 18:31 52.34231 5.11082 5686 ft 266 kts 237°
2026-05-07 18:31 52.33261 5.08497 5249 ft 266 kts 237°
2026-05-07 18:31 52.32297 5.05946 4826 ft 266 kts 237°
2026-05-07 18:32 52.31325 5.03387 4407 ft 265 kts 237°
2026-05-07 18:32 52.30356 5.00845 4140 ft 262 kts 237°
2026-05-07 18:32 52.29377 4.98277 4082 ft 266 kts 237°
2026-05-07 18:32 52.28401 4.95716 4074 ft 265 kts 237°
2026-05-07 18:33 52.27424 4.93155 4077 ft 265 kts 237°
2026-05-07 18:33 52.26461 4.90636 4074 ft 265 kts 237°
2026-05-07 18:33 52.25482 4.88079 4074 ft 265 kts 237°
2026-05-07 18:33 52.24503 4.85518 4077 ft 265 kts 237°
2026-05-07 18:34 52.23530 4.82975 4073 ft 264 kts 237°
2026-05-07 18:34 52.22587 4.80508 4066 ft 246 kts 237°
2026-05-07 18:34 52.21724 4.78249 4071 ft 224 kts 237°
2026-05-07 18:34 52.20944 4.76199 4082 ft 213 kts 237°
2026-05-07 18:35 52.20158 4.74127 4077 ft 213 kts 237°
2026-05-07 18:35 52.19380 4.72078 4074 ft 213 kts 237°
2026-05-07 18:35 52.18600 4.70021 4071 ft 213 kts 237°
2026-05-07 18:35 52.17830 4.67992 4075 ft 213 kts 237°
2026-05-07 18:36 52.17050 4.65933 4073 ft 213 kts 237°
2026-05-07 18:36 52.16273 4.63875 4076 ft 213 kts 237°
2026-05-07 18:36 52.15501 4.61827 4078 ft 213 kts 237°
2026-05-07 18:36 52.15010 4.59578 4080 ft 214 kts 268°
2026-05-07 18:37 52.15371 4.57256 4076 ft 215 kts 303°
2026-05-07 18:37 52.16466 4.55643 4079 ft 212 kts 331°
2026-05-07 18:37 52.17741 4.54511 4019 ft 204 kts 332°
2026-05-07 18:37 52.18962 4.53442 3919 ft 195 kts 332°
2026-05-07 18:38 52.20160 4.52449 3703 ft 192 kts 343°
2026-05-07 18:38 52.21446 4.52533 3408 ft 187 kts 31°
2026-05-07 18:38 52.22226 4.54014 3140 ft 182 kts 72°
2026-05-07 18:38 52.22582 4.55997 2912 ft 180 kts 75°
2026-05-07 18:39 52.22990 4.57921 2701 ft 179 kts 67°
2026-05-07 18:39 52.23557 4.59754 2404 ft 184 kts 62°
2026-05-07 18:39 52.24231 4.61585 1984 ft 193 kts 58°
2026-05-07 18:39 52.24964 4.63471 1544 ft 202 kts 58°
2026-05-07 18:40 52.25717 4.65431 1224 ft 202 kts 58°
2026-05-07 18:40 52.26429 4.67282 955 ft 201 kts 58°
2026-05-07 18:40 52.27157 4.69174 678 ft 199 kts 58°